SCP
0 0 0 0 0 0 0 0 0 0 0 0 0 0 0 0 0 0 0 0 0 0 0 0 0 0 0 0 0 0 0 0 0 0 0 0 0 0 0 0 0 0 0 0 0 0 0 0 0
0 0 0 0 0 0 0 0 0 0 0 0 0 0 0 0 0 0 0 0 0 0 0 0 0 0 0 0 0 0 0 0 0 0 0 0 0 0 0 0 0 0 0 0 0 0 0 0 0
0 0 0 0 0 0 0 0 0 0 0 0 0 0 0 0 0 0 0 0 0 0 0 0 0 0 0 0 0 0 0 0 0 0 0 0 0 0 0 0 0 0 0 0 0 0 0 0 0
0 0 0 0 0 0 0 0 0 0 0 0 0 0 0 0 0 0 0 0 0 0 0 0 0 0 0 0 0 0 0 0 0 0 0 0 0 0 0 0 0 0 0 0 0 0 0 0 0
0 0 0 0 0 0 0 0 0 0 0 0 0 0 0 0 0 0 0 0 0 0 0 0 0 0 0 0 0 0 0 0 0 0 0 0 0 0 0 0 0 0 0 0 0 0 0 0 0
0 0 0 0 0 0 0 0 0 0 0 0 0 0 0 0 0 0 0 0 0 0 0 0 0 0 0 0 0 0 0 0 0 0 0 0 0 0 0 0 0 0 0 0 0 0 0 0 0
0 0 0 0 0 0 0 0 0 0 0 0 0 0 0 0 0 0 0 0 0 0 0 0 0 0 0 0 0 0 0 0 0 0 0 0 0 0 0 0 0 0 0 0 0 0 0 0 0
0 0 0 0 0 0 0 0 0 0 0 0 0 0 0 0 0 0 0 0 0 0 0 0 0 0 0 0 0 0 0 0 0 0 0 0 0 0 0 0 0 0 0 0 0 0 0 0 0
0 0 0 0 0 0 0 0 0 0 0 0 0 0 0 0 0 0 0 0 0 0 0 0 0 0 0 0 0 0 0 0 0 0 0 0 0 0 0 0 0 0 0 0 0 0 0 0 0
0 0 0 0 0 0 0 0 0 0 0 0 0 0 0 0 0 0 0 0 0 0 0 0 0 0 0 0 0 0 0 0 0 0 0 0 0 0 0 0 0 0 0 0 0 0 0 0 0
0 0 0 0 0 0 0 0 0 0 0 0 0 0 0 0 0 0 0 0 0 0 0 0 0 0 0 0 0 0 0 0 0 0 0 0 0 0 0 0 0 0 0 0 0 0 0 0 0
0 0 0 0 0 0 0 0 0 0 0 0 0 0 0 0 0 0 0 0 0 0 0 0 0 0 0 0 0 0 0 0 0 0 0 0 0 0 0 0 0 0 0 0 0 0 0 0 0
0 0 0 0 0 0 0 0 0 0 0 0 0 0 0 0 0 0 0 0 0 0 0 0 0 0 0 0 0 0 0 0 0 0 0 0 0 0 0 0 0 0 0 0 0 0 0 0 0
0 0 0 0 0 0 0 0 0 0 0 0 0 0 0 0 0 0 0 0 0 0 0 0 0 0 0 0 0 0 0 0 0 0 0 0 0 0 0 0 0 0 0 0 0 0 0 0 0
0 0 0 0 0 0 0 0 0 0 0 0 0 0 0 0 0 0 0 0 0 0 0 0 0 0 0 0 0 0 0 0 0 0 0 0 0 0 0 0 0 0 0 0 0 0 0 0 0
0 0 0 0 0 0 0 0 0 0 0 0 0 0 0 0 0 0 0 0 0 0 0 0 0 0 0 0 0 0 0 0 0 0 0 0 0 0 0 0 0 0 0 0 0 0 0 0 0
0 0 0 0 0 0 0 0 0 0 0 0 0 0 0 0 0 0 0 0 0 0 0 0 0 0 0 0 0 0 0 0 0 0 0 0 0 0 0 0 0 0 0 0 0 0 0 0 0
0 0 0 0 0 0 0 0 0 0 0 0 0 0 0 0 0 0 0 0 0 0 0 0 0 0 0 0 0 0 0 0 0 0 0 0 0 0 0 0 0 0 0 0 0 0 0 0 0
0 0 0 0 0 0 0 0 0 0 0 0 0 0 0 0 0 0 0 0 0 0 0 0 0 0 0 0 0 0 0 0 0 0 0 0 0 0 0 0 0 0 0 0 0 0 0 0 0
0 0 0 0 0 0 0 0 0 0 0 0 0 0 0 0 0 0 0 0 0 0 0 0 0 0 0 0 0 0 0 0 0 0 0 0 0 0 0 0 0 0 0 0 0 0 0 0 0
0 0 0 0 0 0 0 0 0 0 0 0 0 0 0 0 0 0 0 0 0 0 0 0 0 0 0 0 0 0 0 0 0 0 0 0 0 0 0 0 0 0 0 0 0 0 0 0 0
0 0 0 0 0 0 0 0 0 0 0 0 0 0 0 0 0 0 0 0 0 0 0 0 0 0 0 0 0 0 0 0 0 0 0 0 0 0 0 0 0 0 0 0 0 0 0 0 0
0 0 0 0 0 0 0 0 0 0 0 0 0 0 0 0 0 0 0 0 0 0 0 0 0 0 0 0 0 0 0 0 0 0 0 0 0 0 0 0 0 0 0 0 0 0 0 0 0
0 0 0 0 0 0 0 0 0 0 0 0 0 0 0 0 0 0 0 0 0 0 0 0 0 0 0 0 0 0 0 0 0 0 0 0 0 0 0 0 0 0 0 0 0 0 0 0 0
0 0 0 0 0 0 0 0 0 0 0 0 0 0 0 0 0 0 0 0 0 0 0 0 0 0 0 0 0 0 0 0 0 0 0 0 0 0 0 0 0 0 0 0 0 0 0 0 0
0 0 0 0 0 0 0 0 0 0 0 0 0 0 0 0 0 0 0 0 0 0 0 0 0 0 0 0 0 0 0 0 0 0 0 0 0 0 0 0 0 0 0 0 0 0 0 0 0
0 0 0 0 0 0 0 0 0 0 0 0 0 0 0 0 0 0 0 0 0 0 0 0 0 0 0 0 0 0 0 0 0 0 0 0 0 0 0 0 0 0 0 0 0 0 0 0 0
0 0 0 0 0 0 0 0 0 0 0 0 0 0 0 0 0 0 0 0 0 0 0 0 0 0 0 0 0 0 0 0 0 0 0 0 0 0 0 0 0 0 0 0 0 0 0 0 0
0 0 0 0 0 0 0 0 0 0 0 0 0 0 0 0 0 0 0 0 0 0 0 0 0 0 0 0 0 0 0 0 0 0 0 0 0 0 0 0 0 0 0 0 0 0 0 0 0
0 0 0 0 0 0 0 0 0 0 0 0 0 0 0 0 0 0 0 0 0 0 0 0 0 0 0 0 0 0 0 0 0 0 0 0 0 0 0 0 0 0 0 0 0 0 0 0 0
Wind_Speed
3 1 2 3 3 1 2 4 4 6 6 3 3 3 3 1 1 4 7 9 10 12 11 11 9 10 12 12 12 12 13 13 14 14 14 15 15 15 15 15 15 15 15 17 19 19 19 19 19
2 1 2 2 4 3 3 5 6 5 5 6 4 4 3 3 2 5 8 8 11 12 11 11 11 12 13 12 12 12 12 13 14 14 15 15 15 15 15 15 15 15 16 18 19 19 19 19 19
1 1 1 2 3 3 2 6 7 6 7 4 5 2 1 4 6 7 6 9 11 11 11 11 11 12 13 13 13 12 12 13 13 14 15 15 15 16 16 16 15 16 17 19 19 19 19 19 19
2 2 1 3 2 1 0 5 7 10 6 3 4 4 3 2 3 3 5 10 12 11 10 12 11 12 13 13 13 13 13 13 13 14 15 15 15 16 16 16 16 16 18 19 19 19 19 19 19
1 2 2 2 1 1 1 3 10 11 6 5 4 4 6 4 2 3 7 11 12 11 10 12 10 11 12 12 13 13 13 13 13 14 14 15 15 16 16 16 17 17 18 19 19 20 19 19 19
2 2 4 3 2 1 3 7 9 7 4 4 5 4 6 4 5 6 8 10 11 11 10 10 9 9 10 11 11 12 12 13 13 13 14 15 15 16 16 17 17 18 19 19 20 20 20 20 20
3 4 4 2 3 3 5 8 8 7 6 6 5 6 6 7 7 7 8 9 10 10 10 9 10 10 9 9 10 11 11 11 12 13 13 13 14 15 15 16 17 18 19 19 20 20 20 20 20
1 3 4 4 5 5 7 8 4 6 4 3 5 5 5 10 10 7 7 8 9 9 9 9 9 9 10 10 10 10 11 11 11 12 12 12 13 13 12 14 16 18 19 19 20 20 20 20 19
3 5 6 6 7 5 8 8 5 1 3 4 4 2 4 9 11 10 8 8 9 9 9 9 9 8 8 9 10 10 11 11 12 11 12 11 10 11 10 14 15 18 19 19 20 20 20 19 18
4 7 8 3 4 3 9 8 8 7 7 7 6 6 4 10 13 14 14 14 14 13 11 8 9 9 8 7 8 8 9 10 10 10 11 8 8 8 11 13 14 16 17 18 18 17 14 10 9
3 5 2 3 3 2 7 6 6 7 9 11 10 11 11 13 14 16 16 16 15 14 11 9 8 8 8 6 6 5 5 7 9 11 11 8 7 7 8 7 8 10 11 11 12 10 7 8 7
3 2 2 3 4 3 5 5 7 11 8 1 2 6 13 16 18 19 18 16 14 13 13 10 9 7 7 6 6 6 6 6 6 9 11 8 6 7 7 5 6 6 5 7 7 7 10 10 10
3 4 2 2 3 2 3 5 5 10 10 3 2 7 13 16 17 16 14 14 14 14 13 11 9 9 8 7 6 6 6 7 7 8 9 10 8 8 7 6 5 6 6 7 8 9 10 10 10
3 3 2 2 2 3 4 4 5 9 5 7 7 9 12 14 16 15 15 16 16 15 14 12 11 10 9 8 8 7 7 6 7 7 10 11 8 8 8 7 7 6 6 7 8 10 9 9 8
2 3 2 2 2 1 3 8 12 8 4 8 10 11 11 13 14 17 17 17 17 15 14 12 11 10 10 10 9 7 7 6 7 7 9 11 10 10 9 8 7 7 8 9 9 11 9 9 9
3 3 5 4 3 2 5 12 6 2 7 11 12 11 11 12 15 16 16 15 15 14 14 13 9 11 12 10 9 7 7 7 6 6 7 10 11 12 10 8 8 9 8 8 9 9 9 9 8
4 5 6 3 4 4 8 11 4 2 5 10 11 11 11 12 14 16 16 16 15 15 15 14 13 13 12 10 8 7 6 7 6 6 6 9 11 12 10 9 9 11 9 8 9 9 9 10 9
7 7 5 6 3 5 9 14 12 7 8 12 12 11 12 14 17 16 16 16 15 15 15 14 14 13 11 9 7 5 6 6 6 6 6 9 9 11 10 9 12 11 9 9 9 11 10 10 10
3 5 5 4 1 5 11 17 17 15 13 16 16 16 16 16 16 12 13 14 15 15 16 16 16 15 12 9 8 7 7 6 6 5 7 9 10 11 11 10 12 11 11 12 13 12 14 10 10
5 6 8 5 1 5 10 18 18 18 18 18 19 19 19 18 16 13 12 14 16 18 18 18 18 17 16 12 9 6 6 5 5 4 6 8 9 11 10 13 12 12 11 13 14 15 10 9 9
9 11 10 7 1 5 7 14 13 11 11 14 17 19 21 20 20 17 14 15 16 17 19 16 18 18 17 14 9 6 4 4 5 6 6 7 8 10 11 13 13 13 13 14 17 16 13 12 9
11 9 9 6 6 5 4 10 10 7 10 13 16 18 20 20 19 17 14 14 16 16 15 17 17 17 17 16 14 15 12 11 12 8 7 7 7 9 10 12 13 13 12 14 16 15 11 14 11
5 3 4 3 5 8 7 10 14 5 13 16 18 19 20 18 16 15 13 12 12 13 13 14 16 17 17 17 17 16 14 11 8 8 9 8 7 8 9 11 12 13 11 14 15 14 12 11 11
9 8 6 2 3 12 11 12 15 9 13 14 13 14 14 12 10 10 8 7 9 10 12 13 16 17 17 18 18 18 17 14 12 12 11 9 6 6 9 10 10 12 10 13 14 14 14 11 11
7 7 4 5 6 13 5 12 17 9 12 13 13 11 8 6 6 6 6 6 7 9 12 13 15 16 17 18 18 17 17 16 16 14 13 11 8 7 11 11 11 10 11 11 11 12 13 12 12
13 14 12 10 9 8 5 15 12 4 8 12 15 16 13 10 7 6 6 6 6 8 11 13 15 16 16 17 17 16 16 12 11 14 12 13 11 11 13 13 12 12 12 12 11 10 11 10 10
11 13 9 5 3 9 14 15 11 7 11 15 17 16 15 11 8 8 7 6 7 8 11 13 14 14 15 16 16 15 15 14 13 13 12 11 10 9 13 13 12 12 12 13 13 9 11 10 9
5 8 6 9 8 13 17 19 14 7 15 17 15 14 13 9 7 6 5 5 5 7 9 11 13 14 15 15 15 12 15 15 13 12 13 11 11 10 13 12 12 12 12 13 12 10 10 10 9
10 10 9 8 7 9 11 15 6 10 9 9 9 8 8 7 6 4 4 4 4 6 8 10 12 13 14 15 15 15 14 14 13 12 13 12 11 12 13 14 13 13 13 13 12 11 13 12 10
12 16 16 11 9 6 9 18 3 5 4 5 7 5 4 4 4 4 4 4 5 7 9 11 12 13 14 14 14 15 14 14 14 14 13 13 12 12 13 13 13 13 14 14 14 14 14 14 13
Wind_Direction
341 355 229 230 223 227 146 138 151 146 159 141 158 187 202 191 342 78 108 147 152 154 156 158 156 142 134 127 120 113 106 99 93 89 86 84 82 81 81 81 82 84 87 88 86 83 80 77 74
355 270 222 242 256 242 168 167 177 156 125 128 141 159 174 147 76 110 137 150 157 154 157 157 147 143 138 132 126 119 112 105 98 93 88 85 84 83 83 84 84 86 88 88 86 84 81 78 76
139 292 252 227 255 286 159 173 167 124 134 166 158 188 210 139 140 137 132 154 158 155 157 147 148 144 142 139 133 126 120 112 104 97 92 89 87 85 85 86 86 87 88 88 86 84 82 80 78
226 189 204 254 248 358 51 156 156 147 161 186 187 164 156 109 133 114 142 161 159 156 156 150 152 148 148 145 140 135 128 119 110 102 96 93 90 89 88 88 89 88 88 87 86 85 83 82 80
235 225 227 239 217 107 194 161 167 165 173 174 204 181 155 143 156 157 163 165 161 157 157 155 153 151 151 151 147 142 134 126 117 109 103 99 96 94 93 93 92 91 90 89 88 86 84 83 81
176 208 235 235 178 151 166 165 172 185 178 172 200 181 145 139 166 154 163 169 165 159 158 156 150 151 151 153 152 147 141 134 126 118 110 105 101 99 98 97 96 95 94 92 90 89 87 85 82
205 206 237 223 188 191 166 166 189 193 199 189 196 179 153 171 164 155 162 167 166 163 162 163 164 161 155 153 153 152 146 141 134 125 114 105 102 101 99 99 99 99 97 95 93 91 89 86 82
208 175 180 200 206 200 160 168 205 205 198 124 197 205 159 166 155 155 157 166 169 170 170 169 170 171 170 167 159 157 154 148 139 128 117 109 105 102 101 104 103 103 101 99 96 94 90 86 82
211 211 216 206 207 198 165 182 164 216 165 178 215 270 60 139 153 161 166 177 178 179 178 177 175 176 176 175 167 168 162 154 146 138 133 135 128 119 112 105 108 108 105 103 100 97 94 90 81
199 223 227 201 203 185 178 199 175 185 202 207 211 200 157 163 172 180 186 189 189 188 185 185 185 181 181 177 178 181 175 170 169 159 156 149 134 120 115 101 102 106 107 105 103 101 98 94 89
200 229 198 176 193 200 181 196 183 209 221 220 214 189 172 179 187 193 197 198 197 193 187 191 190 187 187 184 186 183 181 180 177 170 165 152 137 131 128 124 116 117 118 112 111 103 91 87 83
149 135 151 151 167 186 191 181 195 223 231 33 252 175 175 187 195 200 201 201 198 198 194 191 191 192 193 194 193 189 185 184 181 177 171 162 154 153 148 143 140 136 126 123 113 103 98 92 87
158 142 125 111 146 178 175 203 228 236 233 225 216 194 197 198 203 206 207 206 204 204 200 195 195 197 194 196 199 198 194 193 187 180 179 176 166 161 155 145 144 138 133 127 120 113 107 100 93
126 137 136 153 166 175 213 232 242 247 215 218 224 221 215 212 209 204 206 209 208 208 204 197 200 202 199 202 204 203 202 196 193 185 186 183 173 164 157 150 144 139 136 129 124 121 113 104 99
120 144 187 202 207 195 229 249 234 238 194 230 232 232 228 225 217 214 211 211 210 209 207 202 203 202 204 208 209 209 206 203 200 192 189 186 180 170 159 153 149 144 137 130 124 119 114 111 106
128 186 224 194 201 194 221 258 245 199 225 244 243 238 235 231 226 225 220 216 213 209 207 204 200 204 206 207 206 206 208 206 207 198 189 187 182 173 161 156 152 146 142 140 136 133 126 120 115
196 217 227 208 188 189 222 258 266 164 238 255 253 248 244 243 236 228 222 218 213 210 207 205 203 206 205 204 203 204 204 207 207 200 193 187 181 173 164 159 153 150 147 145 141 138 136 129 121
196 210 223 232 174 207 232 252 263 241 250 265 266 259 251 248 244 231 219 215 213 210 209 206 203 204 198 193 193 196 201 205 206 203 198 187 178 171 162 155 156 154 150 149 148 141 135 130 127
173 196 225 235 137 231 250 261 266 268 256 259 260 258 254 252 253 238 218 208 207 207 206 206 203 199 192 188 188 193 201 198 201 202 198 191 180 171 164 156 159 162 160 157 152 142 139 136 136
184 221 247 256 188 248 274 273 270 262 256 253 256 256 255 254 251 234 217 207 207 207 206 206 205 199 196 196 190 191 184 188 193 189 196 193 184 175 169 165 165 167 159 155 155 151 146 153 169
218 231 243 244 207 231 285 277 255 250 250 257 254 255 257 255 254 246 222 213 211 211 208 205 204 200 198 193 182 158 156 159 178 194 194 192 187 181 175 172 168 169 165 166 166 169 162 167 182
228 227 236 237 260 259 231 281 270 245 255 253 254 250 249 249 249 250 237 222 216 215 210 209 205 202 198 191 190 188 193 197 198 190 182 176 183 184 178 175 172 172 173 172 174 179 175 169 172
192 113 173 217 243 269 223 254 270 239 258 255 252 252 253 253 251 250 243 234 225 214 208 207 205 203 200 198 199 200 205 205 190 176 173 174 179 184 180 181 176 177 177 177 177 179 180 180 180
130 107 89 99 227 261 238 232 265 229 246 257 251 250 254 258 258 258 253 236 223 208 203 202 204 205 202 202 204 205 205 197 185 183 179 178 176 179 184 185 182 181 179 180 181 182 184 185 185
173 160 200 221 222 252 168 233 260 226 233 251 265 268 264 268 269 262 248 229 214 203 200 200 203 205 204 206 208 209 210 202 200 194 188 181 178 185 187 184 184 183 181 180 179 182 185 184 183
195 200 208 230 237 260 190 241 261 241 269 272 269 268 269 265 259 255 251 238 220 206 200 200 204 207 205 207 210 211 210 205 205 201 192 191 192 188 182 185 183 181 178 177 178 181 181 181 183
180 218 235 246 271 277 260 257 271 245 258 253 252 256 261 262 254 247 243 234 223 209 203 203 204 208 208 209 210 211 209 206 204 199 198 197 195 182 179 183 179 177 176 176 175 178 175 172 175
208 165 157 201 225 249 258 261 261 216 233 242 247 252 261 265 257 245 235 228 222 215 208 206 207 209 209 209 210 211 210 208 204 198 198 196 189 179 178 180 178 174 174 174 174 169 169 166 164
171 187 204 206 219 230 259 262 227 218 231 248 259 263 268 267 260 250 240 228 220 214 210 208 209 211 210 209 209 210 210 208 205 202 201 195 188 182 183 182 178 175 174 174 173 169 166 165 160
213 209 199 204 217 227 254 266 170 218 247 263 276 280 277 273 267 260 252 239 228 221 216 214 210 211 211 208 208 210 209 206 206 206 201 194 189 187 186 182 180 179 176 176 175 169 170 168 166